Cloud_Cover
0 0 0 0 0 0 0 0 3 87 65 93 78 1 5 44 87 56 99 6 5 0 0 0 1 5 82 100 92 97 94 41 31 93 98 99 100 100 100 100 100 100 100 5
0 0 0 0 0 0 0 0 0 0 0 3 0 0 4 0 93 16 34 100 5 3 2 0 0 0 10 4 83 4 3 10 11 97 100 95 94 99 100 91 98 100 99 80
0 0 0 0 0 0 0 0 0 0 0 0 0 0 0 0 0 7 91 20 6 4 0 0 0 0 0 4 4 5 4 0 18 48 100 45 46 100 100 100 87 20 24 51
0 0 0 0 0 0 0 0 0 0 0 0 0 0 0 2 100 44 4 51 97 100 4 4 0 0 0 0 2 59 74 8 24 8 54 100 95 80 73 100 45 6 4 68
0 0 0 0 0 0 0 0 0 0 0 0 0 0 0 38 96 99 90 15 65 97 33 2 0 0 0 0 0 2 13 21 5 100 94 100 100 100 100 100 100 10 50 20
0 1 3 5 0 0 0 0 0 0 0 0 0 0 0 36 98 100 100 87 29 26 72 0 0 0 0 0 0 0 2 0 5 22 59 96 59 18 100 100 96 74 93 97
5 1 5 2 0 0 0 0 0 0 0 0 0 0 0 40 47 88 100 100 51 0 0 0 0 0 0 0 0 0 4 1 40 6 38 56 66 9 32 100 100 36 90 94
5 5 14 4 1 0 0 0 0 0 0 28 97 58 51 41 20 49 52 6 2 0 0 0 0 0 0 0 0 0 0 0 6 100 20 51 99 12 6 99 49 58 84 5
5 28 100 32 5 4 0 0 0 0 0 5 36 100 100 76 100 28 3 2 1 0 0 0 0 0 0 0 0 0 0 0 13 100 100 100 100 11 3 3 14 99 55 12
1 4 59 86 86 9 5 4 2 2 2 3 5 35 96 16 100 36 1 0 0 0 0 0 0 0 0 0 0 17 0 0 12 100 100 100 100 55 10 4 3 6 33 17
67 89 8 100 100 76 58 7 15 83 97 61 5 100 72 96 55 34 2 3 0 0 0 0 0 0 0 0 0 0 1 0 0 49 100 100 100 100 80 50 1 33 12 6
100 100 100 70 100 57 90 75 47 31 49 6 86 100 42 92 100 84 41 29 0 0 0 0 0 0 0 0 0 0 0 0 24 99 100 100 100 100 76 6 4 0 0 5
100 100 100 100 100 99 8 46 91 62 12 8 67 100 55 96 82 100 3 5 0 0 0 0 0 0 0 1 0 3 0 0 40 100 100 100 100 100 100 48 6 12 5 5
100 100 100 68 92 90 90 44 4 83 99 27 26 89 98 91 100 100 100 95 2 0 0 0 0 0 0 1 0 0 0 2 100 100 100 100 100 100 100 100 100 98 9 5
100 100 100 100 72 93 100 100 100 29 0 98 100 8 50 77 100 100 100 100 18 0 0 0 0 0 0 0 0 0 0 0 97 100 100 100 100 100 100 100 100 100 100 34
100 98 100 44 100 100 100 100 81 88 43 0 88 53 2 68 100 100 100 100 100 5 0 0 0 0 0 0 0 0 0 4 10 100 100 100 100 100 100 100 100 100 100 86
100 100 100 46 100 100 100 51 93 100 100 89 24 0 0 2 98 100 100 100 20 0 8 0 0 1 5 1 0 0 0 0 6 15 24 100 100 100 100 100 100 100 31 21
100 100 100 100 100 100 100 100 100 100 100 2 100 86 84 100 100 100 100 100 100 92 2 5 62 70 4 0 0 0 0 16 66 52 37 21 68 100 100 100 100 100 100 92
100 100 100 28 100 86 100 94 100 63 52 5 100 100 100 100 100 100 100 100 69 71 61 5 5 73 1 0 0 92 100 100 100 100 100 92 86 13 99 100 100 100 100 98
100 100 100 100 66 66 100 100 100 100 100 100 98 100 100 96 95 100 100 100 20 64 25 21 9 7 0 0 100 100 100 100 100 100 100 100 100 100 74 69 100 100 77 58
68 77 100 100 100 97 100 100 100 100 100 100 100 68 44 93 80 100 100 100 100 100 100 94 94 6 0 82 100 100 100 100 100 100 100 100 100 100 100 40 5 15 55 32
5 42 8 26 58 36 100 100 100 100 100 100 100 100 100 70 100 100 100 100 100 100 100 100 33 0 1 100 100 100 100 100 100 100 100 100 100 100 100 100 54 71 5 5
77 100 100 100 63 67 99 68 100 100 100 100 100 100 100 100 98 100 100 100 100 100 100 75 1 0 98 100 100 100 100 100 100 100 100 100 100 100 100 100 100 52 30 5
100 100 100 95 100 97 37 58 24 100 100 100 100 98 100 100 100 100 100 62 24 56 85 6 3 0 82 100 100 100 100 100 100 100 100 100 100 100 100 100 100 75 6 13
59 100 78 82 90 100 58 64 37 72 100 100 100 59 100 46 31 100 100 7 6 5 7 13 92 50 45 100 100 100 100 100 100 100 100 100 100 100 100 100 100 100 100 100
45 98 100 100 100 100 100 24 63 9 88 100 100 100 93 100 94 43 38 6 13 7 50 54 46 57 21 100 100 100 100 100 100 100 100 100 100 100 100 100 100 100 100 100